CARTOSAT-2C

Last updated on Thu Jul 03 2025 00:02:30 GMT+0000 (Coordinated Universal Time)

1 41599U 16040A 25183.58618882 .00003762 00000+0 18122-3 0 9998 2 41599 97.4212 243.3558 0010470 265.8416 94.1622 15.19302692500635
UTC large
Height (km)
Speed (km/s)
/
Latitude / Longitude
Inclination (degrees)
Orbital Period (minutes)
Azimuth
Elevation
Range (km)
Doppler Factor

Next 0 passes for location: London (51.5072 / 0.1276)

Sorry there are no passes over London.